Home   Weather   Neubrandenburg   Past weeks

Flag for Germany Past Weather in Neubrandenburg, Mecklenburg-Western Pomerania, Germany — Yesterday and Last 2 Weeks

Now
72 °F

Sunny.


Feels Like: 77 °F
Forecast: 51 / 67 °F
Wind: 16 mph from Southwest

Location: Heringsdorf

Current Time: Sep 29, 2016 at 2:01:02 PM

Latest Report: Sep 29, 2016 at 1:20 PM


Visibility: 10 mi

Pressure: 29.83 "Hg

Humidity: 44%

Dew Point: 48 °F

Location of NeubrandenburgLocation

Past Weather in Neubrandenburg — Graph

°F

Neubrandenburg Temperature Yesterday

Maximum temperature yesterday: 70 °F (at 3:50 PM)
Minimum temperature yesterday: 59 °F (at 8:20 AM)
Average temperature yesterday: 65 °F

High & Low Weather Summary for the Past Weeks

 TemperatureHumidityPressure
High81 °F (Sep 14, 3:20 PM)100% (Sep 22, 8:20 AM)30.30 "Hg (Sep 22, 8:20 AM)
Low50 °F (Sep 22, 8:20 AM)35% (Sep 22, 2:20 PM)29.83 "Hg (Sep 29, 12:50 PM)
Average64 °F61%30.11 "Hg
* Reported Sep 14 12:50 PM — Sep 29 12:50 PM, Neubrandenburg, Weather by CustomWeather, © 2016

Note: Actual official high and low records may vary slightly from our data, if they occured in-between our weather recording intervals... More about our weather records

Advertising

Neubrandenburg Weather History for the Previous 24 Hours

Scroll right to see more
 ConditionsComfort  
Time TempWeatherWind HumidityBarometerVisibility
12:50 PM
Thu, Sep 29
70 °FSunny.16 mph57%29.83 "Hg10 mi
12:20 PM70 °FSunny.16 mph64%29.86 "Hg10 mi
11:50 AM68 °FSunny.14 mph69%29.86 "Hg10 mi
11:20 AM68 °FSunny.15 mph64%29.89 "Hg10 mi
10:50 AM66 °FSunny.14 mph68%29.89 "Hg10 mi
10:20 AM66 °FSunny.15 mph68%29.92 "Hg10 mi
9:50 AM64 °FSunny.15 mph73%29.92 "Hg10 mi
9:20 AM64 °FScattered clouds.15 mph73%29.92 "HgN/A
8:50 AM64 °FPartly sunny.12 mph73%29.92 "HgN/A
8:20 AM63 °FPartly sunny.13 mph73%29.95 "HgN/A
5:50 PM
Wed, Sep 28
68 °FPartly sunny.20 mph49%30.01 "HgN/A
5:20 PM68 °FPartly sunny.20 mph49%30.01 "HgN/A
4:50 PM68 °FPartly sunny.15 mph53%30.01 "HgN/A
4:20 PM68 °FPartly sunny.22 mph53%29.98 "HgN/A
3:50 PM70 °FPartly sunny.17 mph50%29.98 "HgN/A
3:20 PM68 °FPartly sunny.17 mph56%30.01 "HgN/A
2:50 PM68 °FSunny.18 mph56%30.01 "Hg10 mi
2:20 PM66 °FPassing clouds.16 mph64%30.01 "HgN/A
Weather by CustomWeather, © 2016

See weather overviewHow to use our weather pages